| time (UTC) | temp F | wind direction | speed MPH | gust MPH | rain 1hr in | rain 24hr in | rain mn in | humidity % | barometer mb |
| 20260831001558 | 94 | 11 | 3.0 | 11.0 | 0.00 | 0.00 | 0.00 | 44 | 1008.7 |
| 20260831000012 | 95 | 191 | 2.0 | 12.0 | 0.00 | 0.00 | 0.00 | 43 | 1008.6 |
| 20260830234609 | 96 | 11 | 3.0 | 15.0 | 0.00 | 0.00 | 0.00 | 40 | 1008.4 |
| 20260830233012 | 97 | 11 | 3.0 | 16.0 | 0.00 | 0.00 | 0.00 | 41 | 1008.4 |
| 20260830231602 | 97 | 11 | 2.0 | 12.0 | 0.00 | 0.00 | 0.00 | 42 | 1008.3 |
| 20260830230021 | 97 | 11 | 5.0 | 16.0 | 0.00 | 0.00 | 0.00 | 40 | 1008.4 |
| 20260830224616 | 98 | 11 | 7.0 | 17.0 | 0.00 | 0.00 | 0.00 | 40 | 1008.3 |
| 20260830223032 | 98 | 197 | 7.0 | 20.0 | 0.00 | 0.00 | 0.00 | 40 | 1008.3 |
| 20260830221626 | 98 | 11 | 6.0 | 14.0 | 0.00 | 0.00 | 0.00 | 40 | 1008.3 |
| 20260830220046 | 99 | 183 | 6.0 | 21.0 | 0.00 | 0.00 | 0.00 | 41 | 1008.4 |
| 20260830214631 | 99 | 11 | 4.0 | 19.0 | 0.00 | 0.00 | 0.00 | 42 | 1008.5 |
| 20260830213050 | 100 | 11 | 9.0 | 22.0 | 0.00 | 0.00 | 0.00 | 41 | 1008.6 |
| 20260830211635 | 100 | 11 | 6.0 | 14.0 | 0.00 | 0.00 | 0.00 | 41 | 1008.7 |
| 20260830210058 | 100 | 11 | 8.0 | 20.0 | 0.00 | 0.00 | 0.00 | 41 | 1008.9 |
| 20260830204502 | 100 | 11 | 7.0 | 20.0 | 0.00 | 0.00 | 0.00 | 41 | 1009.2 |
| 20260830203056 | 100 | 11 | 7.0 | 17.0 | 0.00 | 0.00 | 0.00 | 42 | 1009.4 |
| 20260830201513 | 99 | 210 | 6.0 | 25.0 | 0.00 | 0.00 | 0.00 | 43 | 1009.4 |
| 20260830200104 | 99 | 197 | 8.0 | 20.0 | 0.00 | 0.00 | 0.00 | 42 | 1009.6 |
| 20260830194510 | 99 | 11 | 7.0 | 12.0 | 0.00 | 0.00 | 0.00 | 43 | 1009.7 |
| 20260830193100 | 99 | 11 | 8.0 | 20.0 | 0.00 | 0.00 | 0.00 | 43 | 1009.9 |
| 20260830191520 | 99 | 11 | 11.0 | 22.0 | 0.00 | 0.00 | 0.00 | 42 | 1010.0 |
| 20260830190106 | 98 | 236 | 7.0 | 19.0 | 0.00 | 0.00 | 0.00 | 45 | 1010.2 |
| 20260830184518 | 96 | 11 | 10.0 | 21.0 | 0.00 | 0.00 | 0.00 | 47 | 1010.5 |
| 20260830183105 | 96 | 11 | 8.0 | 23.0 | 0.00 | 0.00 | 0.00 | 47 | 1010.5 |
| 20260830181517 | 95 | 11 | 5.0 | 27.0 | 0.00 | 0.00 | 0.00 | 49 | 1010.6 |
| 20260830174520 | 94 | 11 | 5.0 | 18.0 | 0.00 | 0.00 | 0.00 | 50 | 1011.0 |
| 20260830173118 | 93 | 224 | 6.0 | 18.0 | 0.00 | 0.00 | 0.00 | 51 | 1011.1 |
| 20260830171520 | 93 | 11 | 6.0 | 23.0 | 0.00 | 0.00 | 0.00 | 51 | 1011.4 |
| 20260830170114 | 92 | 195 | 5.0 | 23.0 | 0.00 | 0.00 | 0.00 | 53 | 1011.6 |
| 20260830164538 | 91 | 11 | 7.0 | 24.0 | 0.00 | 0.00 | 0.00 | 53 | 1011.7 |
| 20260830163126 | 90 | 11 | 8.0 | 23.0 | 0.00 | 0.00 | 0.00 | 54 | 1011.9 |
| 20260830161554 | 88 | 11 | 10.0 | 17.0 | 0.00 | 0.00 | 0.00 | 56 | 1011.9 |
| 20260830160127 | 87 | 11 | 9.0 | 23.0 | 0.00 | 0.00 | 0.00 | 56 | 1011.7 |
| 20260830154540 | 86 | 229 | 7.0 | 18.0 | 0.00 | 0.00 | 0.00 | 59 | 1011.4 |
| 20260830153124 | 84 | 11 | 5.0 | 15.0 | 0.00 | 0.00 | 0.00 | 61 | 1011.4 |
| 20260830151539 | 84 | 248 | 7.0 | 16.0 | 0.00 | 0.00 | 0.00 | 61 | 1011.1 |
| 20260830150124 | 83 | 11 | 5.0 | 17.0 | 0.00 | 0.00 | 0.00 | 62 | 1011.2 |
| 20260830144529 | 82 | 11 | 5.0 | 20.0 | 0.00 | 0.00 | 0.00 | 63 | 1011.2 |
| 20260830143130 | 82 | 11 | 9.0 | 22.0 | 0.00 | 0.00 | 0.00 | 61 | 1011.1 |
| 20260830141543 | 82 | 11 | 6.0 | 21.0 | 0.00 | 0.00 | 0.00 | 62 | 1011.4 |
| 20260830140002 | 81 | 188 | 8.0 | 24.0 | 0.00 | 0.00 | 0.00 | 63 | 1011.5 |
| 20260830134549 | 79 | 180 | 7.0 | 22.0 | 0.00 | 0.00 | 0.00 | 65 | 1011.7 |
| 20260830133133 | 79 | 11 | 7.0 | 18.0 | 0.00 | 0.00 | 0.00 | 64 | 1011.7 |
| 20260830131551 | 78 | 11 | 8.0 | 24.0 | 0.00 | 0.00 | 0.00 | 65 | 1011.7 |
| 20260830130008 | 77 | 215 | 6.0 | 17.0 | 0.00 | 0.00 | 0.00 | 66 | 1011.8 |
| 20260830124552 | 77 | 11 | 6.0 | 17.0 | 0.00 | 0.00 | 0.00 | 66 | 1011.9 |
| 20260830123016 | 77 | 199 | 5.0 | 13.0 | 0.00 | 0.00 | 0.00 | 65 | 1012.1 |
| 20260830121604 | 77 | 11 | 3.0 | 17.0 | 0.00 | 0.00 | 0.00 | 65 | 1012.0 |
| 20260830120015 | 77 | 210 | 7.0 | 17.0 | 0.00 | 0.00 | 0.00 | 64 | 1012.1 |
| 20260830114616 | 77 | 11 | 6.0 | 20.0 | 0.00 | 0.00 | 0.00 | 64 | 1012.0 |
| 20260830113013 | 77 | 11 | 6.0 | 18.0 | 0.00 | 0.00 | 0.00 | 63 | 1011.8 |
| 20260830111607 | 78 | 11 | 5.0 | 15.0 | 0.00 | 0.00 | 0.00 | 63 | 1011.9 |
| 20260830110022 | 78 | 11 | 5.0 | 25.0 | 0.00 | 0.00 | 0.00 | 62 | 1011.9 |
| 20260830104609 | 78 | 11 | 5.0 | 16.0 | 0.00 | 0.00 | 0.00 | 62 | 1011.9 |
| 20260830103029 | 78 | 11 | 6.0 | 20.0 | 0.00 | 0.00 | 0.00 | 62 | 1011.8 |
| 20260830101618 | 78 | 201 | 5.0 | 15.0 | 0.00 | 0.00 | 0.00 | 62 | 1011.7 |
| 20260830100032 | 78 | 11 | 5.0 | 16.0 | 0.00 | 0.00 | 0.00 | 62 | 1011.6 |
| 20260830094617 | 78 | 185 | 3.0 | 18.0 | 0.00 | 0.00 | 0.00 | 62 | 1011.6 |
| 20260830093032 | 78 | 11 | 6.0 | 16.0 | 0.00 | 0.00 | 0.00 | 62 | 1011.4 |
| 20260830091616 | 79 | 11 | 5.0 | 18.0 | 0.00 | 0.00 | 0.00 | 61 | 1011.5 |
| 20260830090022 | 79 | 11 | 4.0 | 18.0 | 0.00 | 0.00 | 0.00 | 61 | 1011.6 |
| 20260830084618 | 79 | 210 | 8.0 | 18.0 | 0.00 | 0.00 | 0.00 | 61 | 1011.4 |
| 20260830083030 | 79 | 11 | 5.0 | 20.0 | 0.00 | 0.00 | 0.00 | 61 | 1011.6 |
| 20260830081642 | 79 | 201 | 5.0 | 15.0 | 0.00 | 0.00 | 0.00 | 61 | 1011.4 |
| 20260830080034 | 79 | 11 | 6.0 | 17.0 | 0.00 | 0.00 | 0.00 | 60 | 1011.2 |
| 20260830074634 | 79 | 11 | 6.0 | 17.0 | 0.00 | 0.00 | 0.00 | 60 | 1011.4 |
| 20260830073049 | 79 | 11 | 5.0 | 18.0 | 0.00 | 0.00 | 0.00 | 61 | 1011.2 |
| 20260830071510 | 79 | 11 | 4.0 | 12.0 | 0.00 | 0.00 | 0.00 | 62 | 1011.3 |
| 20260830070050 | 79 | 178 | 4.0 | 13.0 | 0.00 | 0.00 | 0.00 | 63 | 1011.5 |
| 20260830064503 | 79 | 11 | 2.0 | 11.0 | 0.00 | 0.00 | 0.00 | 63 | 1011.7 |
| 20260830063103 | 79 | 11 | 3.0 | 8.0 | 0.00 | 0.00 | 0.00 | 63 | 1011.7 |
| 20260830061507 | 80 | 173 | 2.0 | 9.0 | 0.00 | 0.00 | 0.00 | 62 | 1011.8 |
| 20260830060054 | 80 | 11 | 2.0 | 8.0 | 0.00 | 0.00 | 0.00 | 62 | 1011.8 |
| 20260830054513 | 80 | 168 | 3.0 | 9.0 | 0.00 | 0.00 | 0.00 | 61 | 1011.5 |
| 20260830053107 | 81 | 11 | 2.0 | 9.0 | 0.00 | 0.00 | 0.00 | 60 | 1011.6 |
| 20260830051519 | 82 | 180 | 3.0 | 9.0 | 0.00 | 0.00 | 0.00 | 59 | 1011.5 |
| 20260830050002 | 82 | 11 | 4.0 | 11.0 | 0.00 | 0.00 | 0.00 | 58 | 1011.6 |
| 20260830044602 | 82 | 167 | 3.0 | 10.0 | 0.00 | 0.00 | 0.00 | 59 | 1011.4 |
| 20260830043001 | 82 | 189 | 2.0 | 13.0 | 0.00 | 0.00 | 0.00 | 60 | 1011.5 |
| 20260830041601 | 82 | 166 | 3.0 | 9.0 | 0.00 | 0.00 | 0.00 | 60 | 1011.6 |
| 20260830040133 | 82 | 11 | 1.0 | 7.0 | 0.00 | 0.00 | 0.00 | 60 | 1011.7 |
| 20260830034546 | 82 | 159 | 2.0 | 9.0 | 0.00 | 0.00 | 0.00 | 60 | 1011.7 |
| 20260830033128 | 83 | 11 | 2.0 | 8.0 | 0.00 | 0.00 | 0.00 | 60 | 1011.7 |
| 20260830031540 | 83 | 170 | 2.0 | 9.0 | 0.00 | 0.00 | 0.00 | 60 | 1011.7 |
| 20260830030132 | 83 | 168 | 3.0 | 8.0 | 0.00 | 0.00 | 0.00 | 60 | 1011.5 |
| 20260830024554 | 83 | 178 | 2.0 | 10.0 | 0.00 | 0.00 | 0.00 | 60 | 1011.5 |
| 20260830023006 | 83 | 197 | 2.0 | 6.0 | 0.00 | 0.00 | 0.00 | 60 | 1011.4 |
| 20260830021609 | 83 | 11 | 1.0 | 8.0 | 0.00 | 0.00 | 0.00 | 60 | 1011.3 |
| 20260830020027 | 84 | 158 | 2.0 | 5.0 | 0.00 | 0.00 | 0.00 | 60 | 1010.9 |
| 20260830014558 | 85 | 152 | 1.0 | 7.0 | 0.00 | 0.00 | 0.00 | 60 | 1010.7 |
| 20260830013016 | 86 | 11 | 2.0 | 6.0 | 0.00 | 0.00 | 0.00 | 58 | 1010.5 |
| 20260830011604 | 87 | 200 | 1.0 | 5.0 | 0.00 | 0.00 | 0.00 | 56 | 1010.4 |
| 20260830010036 | 88 | 11 | 2.0 | 6.0 | 0.00 | 0.00 | 0.00 | 54 | 1010.5 |
| 20260830004619 | 89 | 11 | 0.0 | 3.0 | 0.00 | 0.00 | 0.00 | 53 | 1010.5 |
| 20260830003028 | 90 | 182 | 1.0 | 8.0 | 0.00 | 0.00 | 0.00 | 50 | 1010.5 |